CZ-6A DEB, 56269

Orbit data source: Space-Track

CZ-6A DEB, 56269 is space debris in SSO originally from a launch on Fri, 11 Nov 2022 UTC launched from the Taiyaun Space Center, China (TSC). Debris objects in space refer to the collection of defunct objects orbiting the Earth. Examples of debris include non-operational satellites, rocket bodies, and fragments generated from explosions, collisions, or faulty payload assembly.

Loading next visibility...
Identifier
56269, 2022-151ACM
Orbit
SSO
Country
Flag of CNCN / PRC
Related business
Manufacturer
SAST
Mission
Spacecraft
Bus & Motor
Unknown
Mass
Unknown
Launch date (UTC)
2022-11-11 (3 years ago)
Launch vehicle
Unknown
Launch site
Taiyaun Space Center, China (TSC)
Object type
Payload
Rocket body
Debris
Shape & HBR
Unknown shape, 0.1 m
Radar Cross Section
Small (<0.1 m²)

Expand to show TLE details & history
Last TLE update: 13 hours ago

TLE from 13 hours ago
0 CZ-6A DEB
1 56269U 22151ACM 26129.97323403  .00000349  00000-0  20982-3 0  9990
2 56269  98.8314 134.9828 0038656  74.4092 286.1341 14.12820743165371
Epoch: 2026-05-09T23:21Z
TLE epoch observation values (Epoch: 2026-05-09T23:21:27.420Z)
Latitude
-0.00008°
Longitude
-83.16443°
Altitude
844.97 km
Speed
7.434 km/s
True Right ascension
08h 59m 55s
True Declination
0° 00' 00"
Sunlit
Object was in daylight at epoch
Visualization orbit readout
Latitude
Unknown
Longitude
Unknown
Altitude
Unknown
Speed
Unknown
Apparent Right ascension
Unknown
Apparent Declination
Unknown
Sunlit
N/A
Visualization observer readout
Local Sidereal Time
20:41:38
Azimuth
Unknown
Elevation
Unknown
Doppler factor
Unknown
Orbital elements
Apogee altitude
874.838 km
Perigee altitude
818.98 km
Semi-major axis
7,225.046 km
Eccentricity
0.00387
Inclination
98.8314°
RAAN
134.9828°
Arg. of periapsis
74.4092°
True anomaly
285.70801°
Mean anomaly
286.1341°
Eccentric anomaly
285.92111°
Mean motion
3.53413 °/min
Orbital period
101.86 mins
BSTAR
0.00020982
Loading maneuver chart data...
Computing Atmospheric mass density...
Loading historical data...
Loading historical data...
Loading historical data...
Loading historical data...
Loading historical data...
Loading historical data...
Loading historical data...

Documentation

Showing up to 5 results
|